Location: *
(46.4000°N, 12.6667°E)
Time: 20:15:34
(UTC+00:00)

CZ-4C R/B - Pass Details

Date: 21 June 2021
Orbit: 606 x 1396 km, 63.4° (Epoch: 28 July)

Event Time Altitude Azimuth Distance (km) Brightness Sun altitude
Exits shadow 01:43:48 13° 184° (S) 1,951 3.6 -12.1°
Maximum altitude 01:47:48 41° 117° (ESE) 1,094 2.9 -11.7°
Drops below altitude 10° 01:53:06 10° 49° (NE) 2,515 6.1 -11.1°
Sets 01:55:58 0° 43° (NE) 3,594 7.7 -10.8°
